Regional Weather Roundup
Issued by NWS

Home | Current Version | Previous Version | Graphics & Text | Print | Product List | Glossary On
Versions: 1 2 3 4 5 6 7 8 9 10 11 12 13 14 15 16 17 18 19 20 21 22 23 24 25 26 27 28 29 30 31 32 33 34 35 36 37 38 39 40 41 42 43 44 45 46 47 48 49 50
000
ASUS43 KFSD 290502
RWRSD

WEATHER ROUNDUP FOR SOUTH DAKOTA
NATIONAL WEATHER SERVICE SIOUX FALLS SD
1100 PM CST SUN DEC 28 2014

NOTE: "FAIR" INDICATES FEW OR NO CLOUDS BELOW 12,000 FEET WITH NO
SIGNIFICANT WEATHER AND/OR OBSTRUCTIONS TO VISIBILITY.


SDZ001>005-009-010-012>017-290600-
NORTHWEST AND NORTH CENTRAL SOUTH DAKOTA

CITY           SKY/WX    TMP DP  RH WIND       PRES   REMARKS
BUFFALO          N/A     11   7  84 NE20G25   30.15R WCI  -7
FAITH            N/A     11   7  84 NE13      30.25R WCI  -4
MOBRIDGE       CLOUDY     9   1  70 NE9       30.34R WCI  -4
$$

SDZ012>016-024>037-041>051-057-063-072>074-290600-
SOUTHWEST AND SOUTH CENTRAL SOUTH DAKOTA

CITY           SKY/WX    TMP DP  RH WIND       PRES   REMARKS
RAPID CTY ARPT LGT SNOW  15  11  83 N8        30.16R FOG     WCI   4
PIERRE         MIX PCPN   9   5  84 NE17      30.29R FOG     WCI  -9
CUSTER         LGT SNOW  13  10  88 NE9       29.97R FOG     WCI   1
ELLSWORTH AFB  FLURRIES  15  12  87 NE5       30.15  WCI   8
PHILIP         LGT SNOW  18  14  84 NE10      30.23R FOG     WCI   6
PINE RIDGE     LGT SNOW  17  13  84 NE10      30.08R FOG     WCI   5
WINNER         LGT SNOW  19  15  84 E10       30.23R WCI   7
$$

SDZ004>011-016>023-039-040-290600-
NORTHEAST SOUTH DAKOTA

CITY           SKY/WX    TMP DP  RH WIND       PRES   REMARKS
ABERDEEN       CLOUDY     5  -3  69 N14       30.42R WCI -12
WATERTOWN      CLOUDY     6   0  76 NE8       30.33R WCI  -7
SISSETON         N/A      2  -4  76 N15       30.42R WCI -17
$$

SDZ017-020-022-023-036>040-048>070-290600-
SOUTHEAST SOUTH DAKOTA

CITY           SKY/WX    TMP DP  RH WIND       PRES   REMARKS
SIOUX FALLS    LGT SNOW  15  11  83 NE10      30.29R FOG     WCI   2
HURON          LGT SNOW  10   6  84 NE14      30.34R FOG     WCI  -6
MITCHELL       LGT SNOW  18  15  88 NE9       30.32R FOG     WCI   7
YANKTON        CLOUDY    19  18  93 NE8       30.28R WCI   9
$$

ABBREVIATIONS USED IN REMARKS
   TC - TEMPERATURE IN CELSIUS
  WCI - WIND CHILL INDEX
   HX - HEAT INDEX
  VSB - VISIBILITY




USA.gov is the U.S. government's official web portal to all federal, state and local government web resources and services.